Simultaneous Nadir Overpasses (SNOs) Predictions

Prediction of SNOs between FY3D and NOAA-19 Satellite Orbit:

Table of predicted SNOs for the next 14.0 days since TLE Epoch: 7/11/2020
Index Date (FY3D) Time (FY3D) Lat,Lon (FY3D) SZA (FY3D ) Date (NOAA-19) Time (NOAA-19) Lat,Lon (NOAA-19) SZA (NOAA-19 ) Distance(km) Time Diff (sec)
1 07/11/2020 20:58:45 -79.30, 13.85 120.84 07/11/2020 20:57:33 -79.32, 13.88 120.79 2.16 72
2 07/11/2020 21:49:30 79.32,-179.00 59.21 07/11/2020 21:48:28 79.30,-179.01 59.22 2.31 62
3 07/11/2020 22:40:15 -79.33, -11.77 120.78 07/11/2020 22:39:34 -79.31, -11.74 120.78 3.01 41
4 07/11/2020 23:30:59 79.32, 155.65 59.21 07/11/2020 23:30:28 79.32, 155.65 59.23 0.19 31
5 07/12/2020 00:21:43 -79.33, -37.12 120.77 07/12/2020 00:21:33 -79.33, -37.08 120.77 1.20 10
6 07/12/2020 01:12:27 79.32, 130.29 59.22 07/12/2020 01:12:27 79.34, 130.30 59.23 1.94 0
7 07/12/2020 02:03:12 -79.33, -62.48 120.76 07/12/2020 02:03:33 -79.34, -62.43 120.77 1.70 21
8 07/12/2020 02:53:57 79.35, 104.67 59.28 07/12/2020 02:54:28 79.32, 104.68 59.24 3.09 31
9 07/12/2020 03:44:41 -79.33, -87.83 120.76 07/12/2020 03:45:33 -79.36, -87.77 120.76 3.65 52
10 07/12/2020 04:35:26 79.35, 79.32 59.29 07/12/2020 04:36:28 79.34, 79.34 59.25 1.08 62
